#timestamp,LO_Frequency,Hit,StdDev 
1526122815.5,286046997.0,N
1526122835.3,286046996.5,N
1526122855.2,286046999.6,N
1526122875.0,286046996.8,N
1526122875.9,286046996.8,N
1526122895.8,286046997.9,N
1526122915.6,286046999.4,N
1526122935.4,286046997.2,N
1526122955.3,286046997.2,N
1526122975.1,286046997.8,N
1526122995.9,286046995.2,Y
1526123015.7,286046997.1,P
1526123035.5,286046997.8,N
1526123055.4,286046995.5,P
1526123075.2,286046997.7,N
1526123095.1,286046995.5,Y
1526123096.0,286046995.5,P
1526123115.8,286046998.5,N
1526123135.6,286046999.3,N
1526123155.5,286046997.9,N
1526123175.3,286046995.3,Y
1526123195.2,286046999.3,P
1526123215.9,286046999.1,N
1526123235.7,286046999.5,N
1526123255.6,286046997.3,Y
1526123275.4,286046997.0,P
1526123295.2,286046996.5,P
1526123315.1,286046998.8,N
1526123316.0,286046998.8,N
1526123335.8,286046998.3,N
1526123355.7,286047001.1,N
1526123375.5,286047000.6,N
1526123395.3,286047000.7,N
1526123415.2,286047000.0,N
1526123435.0,286047000.4,N
1526123435.9,286047000.4,N
1526123455.8,286047000.3,N
1526123475.6,286047000.9,N
1526123495.4,286047000.5,N
1526123515.3,286047000.4,N
1526123535.1,286047000.5,N
1526123555.9,286047000.6,N
1526123575.7,286047000.9,N
1526123595.5,286046999.1,N
1526123615.4,286046999.6,N
1526123635.2,286046996.6,N
1526123655.0,286046996.8,N
1526123655.9,286046996.8,N
1526123675.8,286046997.6,N
1526123695.6,286046997.9,N
1526123715.5,286046999.1,N
1526123735.3,286046999.2,N
1526123755.1,286046996.6,N
1526123775.9,286046997.5,N
1526123795.7,286046997.9,N
1526123815.6,286046995.9,N
1526123835.4,286046995.0,Y
1526123855.2,286046995.1,P
1526123875.1,286046995.7,N
1526123876.0,286046995.7,N
1526123895.8,286046995.7,N
1526123915.6,286046995.7,Y
1526123935.5,286047001.2,P
1526123955.3,286047001.1,N
1526123975.2,286047002.4,N
1526123995.9,286047002.1,N
1526124015.7,286047002.5,N
1526124035.6,286047002.6,N
1526124055.4,286047000.5,N
1526124075.2,286047000.1,N
1526124095.1,286047002.8,N
1526124096.0,286047002.8,N
1526124115.8,286047000.2,N
1526124135.7,286047002.5,N
1526124155.5,286047002.5,N
1526124175.3,286047000.0,N
1526124195.2,286046999.9,N
1526124215.0,286046998.1,N
1526124215.9,286046998.1,N
1526124235.8,286046998.9,N
1526124255.6,286046998.4,N
1526124275.4,286046998.7,N
1526124295.3,286046998.9,N
1526124315.1,286046998.8,N
1526124335.8,286046999.3,N
1526124355.7,286046996.6,N
1526124375.5,286046997.1,N
1526124395.4,286046997.3,N
1526124415.2,286046997.3,N
1526124435.0,286046997.2,N
1526124435.9,286046997.2,N
1526124455.8,286046999.5,N
1526124475.6,286046999.4,N
1526124495.4,286046997.3,N
1526124515.3,286046997.7,N
1526124535.1,286046996.8,N
1526124555.9,286046999.1,N
1526124575.7,286046998.9,N
1526124595.5,286046998.1,N
1526124615.4,286047000.8,N
1526124635.2,286047002.7,N
1526124655.1,286047000.2,N
1526124656.0,286047000.2,N
1526124675.8,286046999.9,N
1526124695.6,286047000.1,N
1526124715.5,286047002.4,N
1526124735.3,286047002.6,N
1526124755.1,286047004.4,N
1526124775.9,286047003.9,N
1526124795.7,286047003.6,N
1526124815.6,286047005.6,N
1526124835.4,286047003.5,N
1526124855.2,286047003.0,N
1526124875.1,286047005.4,N
1526124876.0,286047005.4,N
1526124895.8,286047003.4,N
1526124915.7,286047003.4,N
1526124935.5,286047003.6,N
1526124955.3,286047005.5,N
1526124975.2,286047003.5,N
1526124995.0,286047003.3,N
1526124995.9,286047003.3,N
1526125015.8,286047005.5,N
1526125035.6,286047006.0,N
1526125055.4,286047003.4,N
1526125075.3,286047003.1,N
1526125095.1,286047003.4,N
1526125115.8,286047005.5,N
1526125135.7,286047003.6,N
1526125155.5,286047004.4,N
1526125175.4,286047002.7,N
1526125195.2,286046999.7,N
1526125215.0,286047002.8,N
1526125215.9,286047002.8,N
1526125235.8,286047002.0,N
1526125255.6,286047001.5,N
1526125275.4,286047002.1,N
1526125295.3,286047002.0,N
1526125315.1,286047004.3,Y
1526125335.9,286047000.6,P
1526125355.7,286046998.1,N
1526125375.5,286046998.9,N
1526125395.4,286046998.5,N
1526125415.2,286046998.4,N
1526125435.0,286046998.8,N
1526125436.0,286046998.8,N
1526125455.8,286047001.1,N
1526125475.6,286047000.5,N
1526125495.5,286047000.5,N
1526125515.3,286046999.8,N
1526125535.1,286046999.7,N
1526125555.9,286046999.9,N
1526125575.7,286046998.2,N
1526125595.6,286046998.4,N
1526125615.4,286046998.9,N
1526125635.2,286046997.0,N
1526125655.1,286046996.7,N
1526125656.0,286046996.7,N
1526125675.8,286046996.6,N
1526125695.7,286046998.6,N
1526125715.5,286047000.3,N
1526125735.3,286047000.2,N
1526125755.2,286047000.2,N
1526125775.0,286047001.0,N
1526125775.9,286047001.0,N
1526125795.7,286046998.4,N
1526125815.6,286046998.2,N
1526125835.4,286046998.6,N
1526125855.3,286046998.4,N
1526125875.1,286046998.8,N
1526125895.8,286046999.3,N
1526125915.7,286046996.6,N
1526125935.5,286046996.5,N
1526125955.4,286046998.8,N
1526125975.2,286046998.7,N
1526125995.0,286046998.6,N
1526125995.9,286046998.6,N
1526126015.8,286046998.8,N
1526126035.6,286047000.8,N
1526126055.4,286047000.9,N
1526126075.3,286047000.4,N
1526126095.1,286047002.7,N
1526126115.9,286047000.4,N
1526126135.7,286047000.2,N
1526126155.5,286047000.0,N
1526126175.4,286046999.9,N
1526126195.2,286047001.2,N
1526126215.0,286046998.6,N
1526126215.9,286046998.6,N
1526126235.8,286046998.5,N
1526126255.6,286047000.4,N
1526126275.5,286047001.0,N
1526126295.3,286047000.9,N
1526126315.1,286047001.2,N
1526126335.9,286047002.8,N
1526126355.7,286046999.7,N
1526126375.5,286047002.8,N
1526126395.4,286047002.1,N
